Location: ????????
(55.6333°N, 37.7333°E)
Time: 07:12:32
(UTC+00:00)

Daily predictions for brighter satellites

Satellite Brightness Start Highest point End
(mag) Time Altitude Azimuth Time Altitude Azimuth Time Altitude Azimuth
Cosmos 2360 4.3 17:53:01 10° NW 17:58:48 89° W 18:04:34 10° SSE
USA 267 3.7 17:52:53 10° ENE 17:58:54 37° SE 18:04:54 10° SSW
Cosmos 44 4.5 17:55:32 10° NW 17:59:55 36° NNE 18:04:30 10° E
IRIDIUM 114 4.4 17:57:30 10° S 18:02:44 84° E 18:08:00 10° N
Cosmos 614 Rocket 4.2 17:59:31 10° S 18:04:29 50° ESE 18:09:32 10° NE
Cosmos 1441 Rocket 3.2 18:01:46 10° S 18:05:30 61° E 18:09:14 10° NNE
Cosmos 1900 4.4 18:03:35 10° SSW 18:08:28 62° SE 18:13:29 10° NE
IGS 5A 3.5 18:05:43 10° SSE 18:09:50 72° ENE 18:14:00 10° NNW
Cosmos 1821 Rocket 4.0 18:03:53 10° S 18:09:59 72° E 18:16:14 10° NNE
GP-B 3.6 18:06:19 10° N 18:10:36 44° E 18:14:52 10° SSE
IRIDIUM 103 4.5 18:06:39 10° S 18:11:53 84° W 18:17:09 10° N
COSMOS 2406 3.3 18:08:57 10° SSW 18:14:37 63° ESE 18:20:17 10° NE
SL-16 R/B 3.1 18:09:18 10° NNW 18:14:42 41° NE 18:20:04 10° ESE
CZ-2C R/B 3.9 18:10:59 10° NNE 18:15:42 84° WNW 18:20:16 10° SSW
Cosmos 921 Rocket 3.4 18:13:00 10° NNW 18:17:11 50° ENE 18:21:16 10° SE
Cosmos 1862 Rocket 3.7 18:14:35 10° N 18:19:04 63° ENE 18:23:29 10° SSE
Cosmos 2369 4.2 18:13:58 10° NW 18:19:38 62° WSW 18:25:16 10° SSE
ERS-1 Rocket 3.2 18:16:30 10° SE 18:21:25 57° ENE 18:26:22 10° N
Lacrosse 5 1.9 18:16:31 10° WNW 18:21:38 89° SSW 18:26:44 10° ESE
Cosmos 2219 Rocket 4.2 18:20:57 10° NNW 18:25:14 21° NNE 18:29:31 10° ENE
Cosmos 2123 Rocket 4.0 18:19:44 10° N 18:25:58 86° ENE 18:32:14 10° S
Cosmos 2278 3.9 18:23:17 10° NW 18:29:00 73° WSW 18:34:41 10° SSE
Sich 1 3.1 18:25:23 10° SSW 18:29:50 87° W 18:34:19 10° NNE
Cosmos 2082 Rocket 2.7 18:24:49 10° S 18:30:03 39° ESE 18:35:18 10° NE
Cosmos 1862 4.0 18:26:15 10° SSW 18:30:15 58° WNW 18:34:18 10° N
NOSS 2 (A) 4.2 18:29:04 10° NW 18:31:57 79° SW 18:33:53 15° SE
Cosmos 2322 Rocket 2.9 18:31:45 10° NNW 18:37:15 47° NE 18:42:37 11° ESE
Spot 2 Rocket 3.8 18:32:12 10° S 18:37:18 71° WSW 18:42:26 10° NNW
USA 234 3.7 18:31:25 10° SE 18:37:39 51° SW 18:44:01 10° WNW
CZ-2C R/B 3.9 18:35:08 10° N 18:40:01 43° WNW 18:44:53 10° SW
Cosmos 1605 Rocket 4.2 18:37:31 10° SSE 18:43:27 54° E 18:49:22 10° NNE
Cosmos 1190 Rocket 4.0 18:39:10 10° SSW 18:44:22 63° ESE 18:49:39 10° NNE
Meteor 1-4 Rocket 3.2 18:41:05 10° NNW 18:44:31 51° W 18:47:52 10° S
Terra 2.0 18:42:15 13° SE 18:46:27 60° ENE 18:51:09 10° N
CARTOSAT-1 3.6 18:42:57 11° SSE 18:47:04 85° ENE 18:51:26 10° NNW
Cosmos 407 Rocket 3.5 18:42:04 10° SSW 18:47:23 77° ESE 18:52:41 10° NNE
Cosmos 1933 Rocket 4.1 18:47:09 13° SSE 18:50:49 40° E 18:55:00 10° NNE
Cosmos 1666 Rocket 3.6 18:46:56 10° SSW 18:51:15 80° WNW 18:55:37 10° N
Cosmos 1238 Rocket 2.7 18:49:11 16° SSE 18:51:15 38° E 18:54:02 10° NNE
Cosmos 1184 Rocket 2.9 18:48:08 10° S 18:51:21 56° E 18:54:37 10° NNE
Cosmos 2360 Rocket 3.2 18:46:07 10° NNW 18:51:26 38° NE 18:56:43 10° ESE
Okean 1 3.4 18:48:33 10° N 18:52:34 64° ENE 18:55:47 15° SSE
USA 238 DEB 4.3 18:47:14 10° S 18:53:03 33° ESE 18:59:05 10° ENE
USA 238 4.3 18:47:22 10° S 18:53:10 33° ESE 18:59:12 10° ENE
Meteor 1-19 Rocket 4.2 18:49:51 10° NNW 18:55:17 68° ENE 18:59:51 15° SSE
Cosmos 1437 Rocket 3.0 18:53:38 10° N 18:57:25 52° ENE 19:00:03 18° SE
Cosmos 1602 4.3 18:56:28 15° SSE 18:59:19 41° E 19:03:03 10° NNE
Cosmos 1980 Rocket 2.8 18:54:43 10° NW 19:00:14 51° WSW 19:05:19 12° S
SPOT 5 2.6 18:56:40 13° SSE 19:00:28 84° WSW 19:04:53 10° NNW
Geosat 4.3 19:00:28 14° SE 19:04:39 59° NE 19:09:37 10° NNW
Iridium 4 Rocket 4.3 19:02:12 16° SE 19:04:41 27° E 19:08:14 10° NNE
SPOT 1/Viking Rocket 4.2 18:59:44 10° S 19:04:50 54° W 19:10:00 10° NNW
ERBS 2.3 19:03:02 10° WSW 19:06:22 83° NNW 19:09:41 10° ENE
Cosmos 2242 Rocket 3.6 19:01:58 10° NNW 19:06:27 88° ENE 19:09:59 16° SSE
Cosmos 1703 Rocket 3.6 19:02:22 10° N 19:06:45 69° ENE 19:09:56 18° SSE
Cosmos 1763 Rocket 3.6 19:01:39 10° NNW 19:07:01 82° ENE 19:11:07 17° SSE
Cosmos 2333 Rocket 3.7 19:06:04 10° NNW 19:11:10 31° NNE 19:16:14 10° E
Cosmos 1140 Rocket 3.5 19:07:59 10° SSW 19:13:15 87° WNW 19:18:33 10° NNE
SL-4 R/B 2.7 19:11:11 10° SW 19:14:24 26° SSE 19:15:57 19° ESE
Cosmos 2237 Rocket 4.4 19:10:54 10° NNW 19:15:06 20° NNE 19:19:15 10° ENE
Cosmos 1697 Rocket 4.4 19:11:03 10° NW 19:15:33 25° WSW 19:20:02 10° SSW
ALOS 2 4.5 19:12:56 10° ESE 19:16:07 21° NE 19:19:22 10° N
Cosmos 1500 4.4 19:15:26 20° SE 19:16:55 26° E 19:20:07 10° NNE
Cosmos 405 Rocket 2.7 19:14:14 17° S 19:16:56 60° E 19:20:37 10° NNE
USA 32 4.2 19:13:23 10° SSW 19:18:37 77° W 19:23:53 10° N
Cosmos 1833 Rocket 3.0 19:15:11 10° SW 19:20:48 73° NW 19:26:29 10° NNE
CENTAUR R/B 3.3 19:17:41 15° S 19:21:54 31° ESE 19:27:58 10° ENE
Meteor 1-18 Rocket 4.3 19:17:10 10° NNW 19:22:48 75° W 19:27:21 16° S
Cosmos 1153 Rocket 4.5 19:18:42 13° S 19:24:11 68° E 19:30:20 10° NNE
Cosmos 1633 Rocket 4.0 19:20:25 10° SSW 19:24:43 49° WNW 19:29:03 10° N
Cosmos 1867 3.6 19:22:51 10° SSW 19:28:11 59° SE 19:33:35 10° NE
Okean 1-7 3.0 19:24:22 10° NNW 19:28:45 85° W 19:31:38 21° S
Cosmos 1666 4.4 19:27:49 16° ESE 19:28:50 18° E 19:31:26 10° NE
Cosmos 2221 Rocket 4.3 19:24:42 10° N 19:28:58 41° ENE 19:31:33 21° SE
Meteor 2-4 Rocket 3.7 19:27:08 10° NNW 19:32:55 82° ENE 19:36:49 21° SSE
Resurs 01 Rocket 4.3 19:32:26 10° WSW 19:34:25 13° W 19:36:26 10° WNW
Okean 3 3.8 19:30:54 10° N 19:35:07 53° ENE 19:37:28 24° SE
Cosmos 1850 Rocket 4.3 19:34:03 18° S 19:37:39 47° ESE 19:42:42 10° NE
Cosmos 1515 4.1 19:37:19 10° NNW 19:41:06 59° W 19:43:28 21° S
Cosmos 44 3.3 19:36:45 10° NW 19:41:35 83° SW 19:44:45 23° SE
Cosmos 676 Rocket 4.1 19:36:32 10° SSW 19:41:53 81° WNW 19:47:17 10° NNE
Meteor 1-25 Rocket 4.4 19:36:26 10° SSW 19:42:00 73° WNW 19:47:40 10° NNE
FALCON 9 DEB 4.1 19:39:24 10° SW 19:41:53 28° S 19:41:53 28° S
USA 267 3.2 19:35:58 10° ENE 19:42:33 78° SSE 19:49:07 10° WSW
SL-27 R/B 3.2 19:46:05 29° ESE 19:46:31 30° ESE 19:49:29 10° NE
NOSS 3-2 (A) 3.5 19:41:36 10° SSW 19:47:21 59° SE 19:54:00 10° NE
Cosmos 1470 Rocket 4.4 19:43:03 10° SSW 19:47:21 50° WNW 19:51:40 10° N
Spot 4 4.0 19:48:18 24° SE 19:51:07 63° ENE 19:55:54 10° N
NOSS 3-2 (C) 3.7 19:48:31 14° SSW 19:53:18 46° SE 19:59:38 10° NE
OPS 6432 4.2 19:52:35 10° SW 19:56:15 87° SSE 19:59:17 10° NE
Cosmos 841 Rocket 3.5 19:53:42 10° NNW 19:58:56 76° WSW 20:01:56 26° SSE
SL-16 R/B 2.5 19:53:30 10° NW 19:59:03 57° WSW 20:02:26 23° S
Cosmos 540 Rocket 3.5 19:55:28 10° NNW 20:00:39 76° WSW 20:03:34 26° SSE
Cosmos 2322 4.2 19:56:01 10° NNW 20:01:38 56° NE 20:05:42 19° ESE
Lacrosse 5 2.5 19:59:37 10° WNW 20:04:19 38° SW 20:06:22 27° S
Tsikada Rocket 4.2 19:59:48 10° N 20:06:11 67° ENE 20:10:05 25° SSE
Cosmos 1570 Rocket 4.2 20:04:34 10° NNW 20:09:50 63° WSW 20:12:46 26° S
Cosmos 2219 Rocket 2.9 20:05:01 10° NNW 20:10:33 49° NE 20:14:57 16° ESE
Cosmos 2208 Rocket 4.1 20:06:35 10° NNW 20:11:53 70° WSW 20:14:40 28° S
Cosmos 1741 Rocket 3.9 20:08:05 18° SSW 20:11:58 77° ESE 20:17:17 10° NNE
Cosmos 1814 Rocket 4.0 20:07:22 10° NNW 20:12:34 72° WSW 20:15:20 28° SSE
Cosmos 1378 Rocket 4.3 20:08:22 10° N 20:12:38 42° ENE 20:14:43 26° SE
Cosmos 2082 Rocket 2.9 20:08:27 10° SW 20:14:02 55° NW 20:19:39 10° NNE
Cosmos 2237 4.2 20:09:40 10° NW 20:15:25 77° WSW 20:18:35 27° SSE
Cosmos 2333 4.5 20:10:17 10° NNW 20:16:06 67° NE 20:19:54 22° SE
Cosmos 2322 Rocket 2.7 20:15:56 10° NW 20:21:25 48° WSW 20:24:25 25° S
Cosmos 2084 Rocket 4.0 20:22:32 34° SE 20:23:00 35° SE 20:26:57 10° ENE
Terra 3.5 20:21:08 12° SW 20:24:33 25° W 20:28:31 10° NW
COSMOS 2487 4.1 20:25:18 19° E 20:25:18 19° E 20:27:38 10° NE
SL-16 R/B 4.5 20:20:55 10° NNW 20:25:21 22° NNE 20:29:46 10° ENE
Cosmos 2100 Rocket 4.1 20:20:53 18° SSW 20:25:34 76° WNW 20:31:46 10° N
EO 1 Del DPAF 3.5 20:25:22 10° NNE 20:29:03 49° E 20:29:58 39° SE
Meteor 1-11 Rocket 3.8 20:26:41 28° S 20:29:46 70° E 20:35:31 10° NNE
Cosmos 2360 Rocket 2.3 20:30:10 10° NW 20:35:48 63° WSW 20:38:35 30° S
ATLAS 3B R/B 3.2 20:34:00 27° SSE 20:36:39 38° ESE 20:42:42 10° ENE
COSMOS 2428 3.1 20:31:00 10° NNW 20:36:44 62° NE 20:40:38 21° SE
Cosmos 1242 Rocket 2.4 20:33:32 10° NNW 20:37:09 86° WSW 20:38:07 47° S
Helios 1A 3.9 20:36:34 25° ESE 20:38:31 41° ENE 20:42:31 10° N
Cosmos 1869 Rocket 4.2 20:35:53 20° SW 20:38:45 52° WNW 20:43:08 10° N
Cosmos 2173 Rocket 4.3 20:36:35 18° SSW 20:41:18 65° WNW 20:47:25 10° N
ERBS 2.4 20:39:28 10° WNW 20:42:47 70° N 20:45:20 16° E
USA 238 DEB 3.7 20:36:41 10° SW 20:43:25 85° NW 20:50:31 10° NE
USA 238 3.7 20:36:47 10° SW 20:43:32 86° NW 20:50:37 10° NE
Iridium 4 Rocket 4.0 20:41:58 21° SW 20:44:32 42° W 20:48:33 10° N
CRYOSAT 2 4.5 20:40:05 10° N 20:44:58 72° W 20:47:31 28° SSW
Cosmos 1725 Rocket 4.0 20:42:39 26° S 20:46:28 88° E 20:52:51 10° NNE
Okean 2 4.2 20:43:26 10° N 20:47:22 41° ENE 20:48:58 28° ESE
SL-08 R/B 4.4 20:47:38 26° SSW 20:51:18 86° WNW 20:57:28 10° N
ALOS 2 2.6 20:50:20 37° S 20:52:00 75° WSW 20:56:26 10° NNW
MOS 1-B Rocket 4.0 20:46:34 10° NNE 20:52:25 74° WNW 20:56:13 21° SSW
Cosmos 1500 4.5 20:50:18 19° SW 20:52:25 35° WNW 20:55:55 10° N
SL-4 R/B 3.2 20:49:59 10° WSW 20:51:35 22° WSW 20:51:35 22° WSW
BREEZE-M DEB (TANK) 4.2 20:49:35 10° W 20:53:58 48° S 21:09:54 10° ESE
Cosmos 1674 Rocket 3.6 20:50:15 10° NNW 20:54:35 72° W 20:56:08 38° S
Cosmos 2333 Rocket 2.2 20:50:21 10° NW 20:56:12 90° E 20:59:20 28° SSE
NOSS 0 Rocket 4.3 20:52:05 10° NW 20:58:18 62° NE 21:03:17 16° SE
Cosmos 2016 Rocket 4.2 20:55:14 22° SSW 20:59:31 69° WNW 21:05:55 10° N
Cosmos 1536 2.9 20:58:57 37° SSW 21:00:24 72° WNW 21:04:25 10° N
Cosmos 2061 Rocket 4.2 20:56:25 22° SSW 21:00:34 68° WNW 21:06:46 10° N
Cosmos 2237 Rocket 3.1 20:55:09 10° NNW 21:00:36 45° NE 21:05:45 11° ESE
Cosmos 1666 3.2 21:02:40 33° SW 21:04:04 53° WNW 21:07:46 10° N
Cosmos 1743 3.0 21:03:13 43° SE 21:04:06 55° E 21:07:56 10° NNE
Cosmos 1271 Rocket 2.6 21:00:56 10° NNW 21:04:43 85° WSW 21:05:39 50° S
Cosmos 2344 4.3 20:59:20 10° NW 21:07:57 77° NNE 21:19:48 10° ESE
Cosmos 1356 4.0 21:07:57 37° SW 21:08:58 52° WNW 21:12:20 10° N
Lacrosse 4 Rocket 2.2 21:09:06 33° SE 21:09:30 34° ESE 21:13:19 10° NE
CENTAUR R/B 2.7 21:05:29 10° SW 21:11:49 88° NW 21:19:25 10° NE
Thor Agena Rocket 3.8 21:08:25 10° NNE 21:13:26 66° WNW 21:16:25 25° SW
Cosmos 1733 Rocket 3.3 21:13:55 32° SW 21:15:48 62° WNW 21:20:12 10° N
Cosmos 44 Rocket 3.3 21:11:15 10° NW 21:16:13 85° SW 21:18:51 29° SE
Cosmos 968 Rocket 3.8 21:19:01 34° SSE 21:20:47 49° ESE 21:25:44 10° NE
SL-27 R/B 4.1 21:19:37 16° WSW 21:21:37 28° NW 21:24:33 10° N
ATLAS 5 CENTAUR R/B 3.8 21:20:53 10° W 21:23:25 22° SW 21:23:25 22° SW
Resurs 1-4 Rocket 4.5 21:22:27 10° ENE 21:23:50 11° E 21:25:12 10° E
SL-24 DEB 4.2 21:20:08 10° N 21:24:58 83° E 21:26:50 38° S
USA 267 3.4 21:19:07 10° E 21:25:41 80° N 21:32:15 10° W
Cosmos 1975 3.3 21:26:37 39° SE 21:27:37 49° E 21:31:32 10° NNE
Cosmos 2233 Rocket 4.2 21:29:55 26° SSW 21:33:37 70° WNW 21:39:59 10° N
Cosmos 1464 Rocket 4.3 21:30:54 29° SSE 21:34:04 58° E 21:40:08 10° NNE
Cosmos 1782 Rocket 3.8 21:33:28 38° SSE 21:34:47 55° E 21:39:03 10° NNE
Cosmos 1378 4.2 21:33:42 10° NNW 21:37:07 33° W 21:37:53 30° WSW
NOSS 3-2 (A) 4.2 21:32:18 10° WSW 21:38:21 58° NNW 21:45:26 10° NE
Cosmos 1707 3.4 21:35:48 10° N 21:39:38 47° ENE 21:41:05 31° SE
Meteor 1-21 4.2 21:34:17 10° NNW 21:40:09 88° WSW 21:43:02 32° S
Cosmos 1842 3.2 21:37:29 10° NNW 21:41:27 72° W 21:42:24 48° SSW
SL-16 R/B 4.3 21:39:52 10° WNW 21:41:58 12° W 21:44:05 10° WSW
Cosmos 1908 Rocket 3.5 21:41:24 40° SSW 21:42:57 79° WNW 21:47:21 10° N
Cosmos 2227 Rocket 4.1 21:40:53 12° SE 21:43:17 16° E 21:46:33 10° ENE
NOSS 3-2 (C) 3.9 21:37:57 10° WSW 21:44:02 67° NNW 21:51:07 10° NE
Helios 1B rocket 3.5 21:40:37 10° NNE 21:44:20 32° E 21:45:30 27° SE
Cosmos 2322 4.4 21:40:29 10° NW 21:45:41 38° WSW 21:47:36 29° SSW
Lacrosse 5 4.1 21:45:11 10° WSW 21:45:31 10° WSW 21:45:31 10° WSW
Nadezhda 4 Rocket 4.0 21:43:33 10° N 21:49:55 79° ENE 21:53:31 27° SSE
Cosmos 1833 4.2 21:46:47 26° SW 21:50:07 82° NW 21:55:51 10° NNE
Cosmos 2219 Rocket 2.7 21:49:10 10° NW 21:54:33 45° WSW 21:56:38 32° SSW
COSMOS 2487 3.2 21:58:46 33° WSW 21:59:51 46° WNW 22:03:12 10° NNE
Cosmos 2084 Rocket 3.9 21:59:01 16° WSW 22:02:21 62° NNW 22:06:42 10° NE
Cosmos 2034 Rocket 4.2 21:59:08 29° SSE 22:02:29 66° E 22:08:46 10° NNE
Cosmos 1975 Rocket 3.4 21:59:26 10° NNW 22:03:50 55° W 22:05:17 37° SSW
Cosmos 1092 Rocket 4.2 21:57:46 10° N 22:04:03 67° ENE 22:08:08 22° SSE
Cosmos 1072 Rocket 4.4 22:02:07 30° SSW 22:05:19 87° WNW 22:11:29 10° N
Meteor 1-29 4.2 22:03:42 10° NNE 22:06:49 31° E 22:07:35 28° ESE
SL-16 R/B 3.2 22:01:10 12° SE 22:06:53 52° ENE 22:12:56 10° NNW
Cosmos 1503 Rocket 4.0 22:05:35 33° SSW 22:08:02 77° ESE 22:13:26 10° NNE
Okean 2 Rocket 3.6 22:08:00 32° SSE 22:09:44 52° E 22:14:08 10° NNE
CZ-2D R/B 3.8 22:05:39 10° NE 22:10:04 24° E 22:13:36 14° SE
SL-16 R/B 2.9 22:05:08 10° NNW 22:10:45 54° NE 22:16:20 10° SE
Cosmos 1437 2.5 22:09:11 10° NNW 22:12:12 75° ENE 22:12:28 66° SE
Landsat 4 3.6 22:09:20 10° NNE 22:13:10 90° WNW 22:14:13 46° SSW
Helios 1A 4.1 22:13:11 27° WSW 22:14:12 30° W 22:17:57 10° NNW
Cosmos 1486 Rocket 4.2 22:11:52 26° SW 22:14:47 65° WNW 22:20:00 10° NNE
Cosmos 1300 Rocket 3.9 22:15:24 34° SSE 22:17:01 55° E 22:21:16 10° NNE
Cosmos 2360 Rocket 4.1 22:15:56 10° WNW 22:18:42 14° W 22:20:19 12° WSW
ERBS 2.9 22:15:48 10° WNW 22:18:11 39° WSW 22:18:11 39° WSW
Sich 1 Rocket 3.5 22:18:02 39° S 22:19:41 90° NW 22:24:06 10° NNE
COSMOS 2428 3.6 22:15:39 10° NW 22:20:45 34° WSW 22:22:37 27° SW
Cosmos 1544 4.0 22:20:20 31° WSW 22:21:26 39° WNW 22:24:56 10° N
PSLV R/B 3.7 22:19:30 10° NNE 22:24:09 82° WNW 22:26:13 34° SSW
ATLAS 3B R/B 2.7 22:21:13 14° WSW 22:26:58 77° NW 22:33:43 10° NE
Meteor 2-5 Rocket 4.4 22:24:37 10° N 22:30:10 51° ENE 22:35:10 12° SE
Meteor 2-9 Rocket 4.4 22:31:37 27° SW 22:34:37 63° WNW 22:40:21 10° N
Meteor 2-13 Rocket 4.4 22:28:47 10° NNW 22:34:56 88° W 22:38:49 24° S
Cosmos 1980 3.9 22:29:44 10° NW 22:35:16 54° WSW 22:38:04 28° S
DNEPR-1 R/B 4.1 22:30:21 10° NW 22:36:34 70° SW 22:40:28 17° SSE
Cosmos 2297 Rocket 3.0 22:34:19 24° SSE 22:37:08 40° ESE 22:42:22 10° NE
DELTA 2 DEB (DPAF) 4.2 22:35:06 25° SSE 22:37:38 77° ENE 22:42:06 10° NNW
USA 102 3.7 22:38:29 46° NW 22:38:29 46° NW 22:44:19 10° NNW
KORONAS-FOTON 4.1 22:34:34 10° N 22:38:19 61° ENE 22:40:10 28° SSE
Cosmos 2333 Rocket 3.6 22:35:28 10° NW 22:39:46 22° WSW 22:41:19 20° SW
Cosmos 2219 3.7 22:37:35 26° S 22:40:22 47° ESE 22:45:45 10° NE
Cosmos 2151 Rocket 3.6 22:39:14 33° S 22:41:09 72° E 22:45:33 10° NNE
Cosmos 1538 Rocket 4.0 22:36:05 10° NNW 22:41:12 63° WSW 22:43:52 28° S
Cosmos 1626 3.7 22:38:52 10° N 22:42:16 32° ENE 22:45:13 13° SE
SJ 16-02 3.3 22:41:00 13° SE 22:43:29 20° E 22:46:41 10° NE
Cosmos 2237 Rocket 2.5 22:39:20 10° NW 22:44:48 50° WSW 22:47:32 27° S
Cosmos 1025 Rocket 3.3 22:42:39 10° NNW 22:46:49 50° W 22:48:18 34° SSW
Timation 2 Rocket 4.0 22:43:45 27° SSW 22:47:11 69° ESE 22:53:10 10° NE
Lacrosse 4 Rocket 2.2 22:45:23 20° WSW 22:48:06 48° NW 22:52:10 10° NE
UNK 3.8 22:46:05 21° SSE 22:49:10 78° ENE 22:53:53 10° NNW
FALCON 9 DEB 3.6 22:56:27 39° S 22:56:27 39° S 22:59:18 10° SE
In-Cosmos 22 4.4 22:53:05 10° NNW 22:58:34 53° W 23:01:27 26° SSW
Cosmos 1766 4.3 22:57:04 21° SSE 22:59:11 38° E 23:02:48 10° NNE
Cosmos 1892 Rocket 4.4 22:57:10 10° N 23:01:33 48° ENE 23:05:39 11° SSE
Spot 1 4.1 23:00:24 31° S 23:02:08 58° WSW 23:06:11 10° NNW
CENTAUR R/B 3.7 22:56:43 10° W 23:03:18 50° NNW 23:11:01 10° ENE
Cosmos 2026 Rocket 4.0 22:58:40 10° NNW 23:04:43 69° W 23:08:43 22° S
Resurs 1-4 Rocket 2.5 22:59:39 10° NNE 23:04:52 56° E 23:08:21 21° S
Cosmos 1536 Rocket 4.1 23:02:13 10° NNW 23:06:20 42° W 23:07:59 29° SW
Cosmos 2112 Rocket 4.1 23:01:14 10° NNW 23:06:31 76° ENE 23:11:43 10° SSE
USA 267 3.2 23:02:10 10° ESE 23:08:45 86° SSW 23:15:20 10° WNW
Cosmos 2279 Rocket 4.3 23:04:12 18° S 23:08:49 61° E 23:14:56 10° NNE
Cosmos 1707 4.3 23:12:11 10° NW 23:15:14 22° W 23:16:13 20° WSW
Cosmos 1943 4.3 23:10:16 10° NNW 23:15:41 46° NE 23:21:06 10° ESE
NOSS 8 (A) 4.0 23:15:24 40° SW 23:16:20 80° SE 23:19:24 10° NE
Cosmos 1634 Rocket 4.0 23:12:14 23° SSW 23:16:25 85° W 23:22:41 10° N
Helios 1B rocket 3.4 23:15:52 10° N 23:19:39 36° WNW 23:21:48 21° WSW
CZ-4C R/B 3.1 23:19:58 31° S 23:21:24 58° WSW 23:24:58 10° NNW
Cosmos 1680 Rocket 3.4 23:18:27 10° NNW 23:23:42 76° WSW 23:28:50 10° SSE
SL-08 R/B 4.4 23:19:04 10° SE 23:23:47 46° ENE 23:28:32 10° N
Cosmos 2227 Rocket 2.3 23:22:42 22° SSW 23:26:22 70° ESE 23:32:02 10° NE
Cosmos 1674 3.2 23:23:48 10° NNW 23:27:19 40° W 23:28:43 28° SW
Cosmos 1607 4.2 23:22:48 10° NW 23:29:00 52° SW 23:35:13 10° SSE
Cosmos 1805 3.2 23:27:20 26° S 23:29:27 89° E 23:33:22 10° NNE
SL-14 R/B 3.2 23:28:10 10° NNW 23:32:09 88° WSW 23:35:00 18° S
Meteor 1-15 Rocket 4.2 23:30:31 21° SSW 23:34:22 77° WNW 23:40:00 10° NNE
H-2A R/B 4.4 23:32:18 10° ESE 23:35:33 23° ENE 23:38:49 10° N
CZ-4B R/B 3.8 23:34:23 10° NNE 23:39:06 55° ESE 23:42:56 15° S
Cosmos 1777 Rocket 4.2 23:35:45 20° SW 23:39:21 64° WNW 23:44:39 10° NNE
Cosmos 1733 3.2 23:37:10 23° S 23:39:30 82° E 23:43:23 10° NNE
Meteor 1-29 4.3 23:36:29 10° N 23:39:30 28° WNW 23:41:13 19° WSW
IRS-1D 4.1 23:35:16 10° NNE 23:40:12 53° E 23:44:39 13° S
Cosmos 158 Rocket 4.2 23:42:06 10° NW 23:47:18 53° WSW 23:52:22 11° S
Cosmos 2082 4.0 23:44:06 18° SSW 23:48:17 63° ESE 23:53:52 10° NE
ADEOS II 2.6 23:43:27 10° NNE 23:48:38 55° E 23:53:32 11° S
GEOS 3 Rocket 3.7 23:43:36 10° NE 23:49:03 86° SE 23:53:18 17° SW
Cosmos 1726 4.3 23:46:30 10° SE 23:49:23 22° E 23:52:15 10° NE
SL-16 R/B 3.1 23:46:15 17° SSW 23:50:40 42° W 23:56:36 10° NNW
CZ-2D R/B 2.2 23:45:12 10° NNE 23:50:41 75° WNW 23:54:54 18° SSW
NPP 3.7 23:48:59 10° NNE 23:54:25 80° WNW 23:58:42 17° SSW
